Location: Mouss�
(47.9236°N, 1.2701°W)
Time: 06:53:37
(UTC+00:00)

GP-B - Pass Details

Date: 03 March 2021
Orbit: 631 x 635 km, 89.8° (Epoch: 11 April)

Event Time Altitude Azimuth Distance (km) Brightness Sun altitude
Rises 19:21:55 0° 176° (S) 2,918 6.4 -15.7°
Reaches altitude 10° 19:24:07 10° 176° (S) 2,015 5.6 -16.1°
Maximum altitude 19:28:34 88° 84° (E) 643 3.0 -16.8°
Drops below altitude 10° 19:33:03 10° 359° (N) 2,033 5.8 -17.5°
Sets 19:35:17 0° 359° (N) 2,946 6.7 -17.9°
